This is the latest recevied weather packets stored in our database for station/object PY2SDN-13. If no packets are shown the sender has not sent any weather packets the latest 10 day(s).
| Time | Temp. | Humidity | Pressure | Rain* | Wind** | Luminosity | Snow |
|---|---|---|---|---|---|---|---|
| 1778167804 | 35° C | 26% | 1009.9 hPa | 0 mm | - | 0 W/m² | - |
| 1778166904 | 35.56° C | 26% | 1010.2 hPa | 0 mm | - | 0 W/m² | - |
| 1778166004 | 36.11° C | 26% | 1010.3 hPa | 0 mm | - | 0 W/m² | - |
| 1778165120 | 36.67° C | 26% | 1010.7 hPa | 0 mm | - | 0 W/m² | - |
| 1778164204 | 36.11° C | 26% | 1011.1 hPa | 0 mm | - | 0 W/m² | - |
| 1778163304 | 36.67° C | 26% | 1011.4 hPa | 0 mm | - | 0 W/m² | - |
| 1778162404 | 36.67° C | 26% | 1011.7 hPa | 0 mm | - | 0 W/m² | - |
| 1778161504 | 35.56° C | 26% | 1012 hPa | 0 mm | - | 0 W/m² | - |
| 1778160604 | 35° C | 26% | 1012.4 hPa | 0 mm | - | 0 W/m² | - |
| 1778159704 | 34.44° C | 26% | 1012.7 hPa | 0 mm | - | 0 W/m² | - |
| 1778158804 | 33.89° C | 26% | 1013 hPa | 0 mm | - | 0 W/m² | - |
| 1778157904 | 33.89° C | 26% | 1012.9 hPa | 0 mm | - | 0 W/m² | - |
| 1778157004 | 33.89° C | 26% | 1013 hPa | 0 mm | - | 0 W/m² | - |
| 1778156104 | 33.89° C | 26% | 1013.1 hPa | 0 mm | - | 0 W/m² | - |
| 1778155204 | 33.89° C | 26% | 1013.2 hPa | 0 mm | - | 0 W/m² | - |
| 1778154304 | 32.22° C | 26% | 1013.4 hPa | 0 mm | - | 0 W/m² | - |
| 1778153404 | 31.67° C | 26% | 1013.5 hPa | 0 mm | - | 0 W/m² | - |
| 1778152504 | 28.89° C | 26% | 1013.4 hPa | 0 mm | - | 0 W/m² | - |
| 1778151603 | 25° C | 26% | 1013.4 hPa | 0 mm | - | 0 W/m² | - |
| 1778150704 | 22.78° C | 26% | 1013.1 hPa | 0 mm | - | 0 W/m² | - |
| 1778149803 | 22.22° C | 26% | 1013.1 hPa | 0 mm | - | 0 W/m² | - |
| 1778148905 | 21.11° C | 26% | 1012.9 hPa | 0 mm | - | 0 W/m² | - |
| 1778148004 | 21.11° C | 26% | 1012.8 hPa | 0 mm | - | 0 W/m² | - |
| 1778147103 | 20.56° C | 26% | 1012.9 hPa | 0 mm | - | 0 W/m² | - |
| 1778146203 | 20.56° C | 26% | 1012.8 hPa | 0 mm | - | 0 W/m² | - |
* Rain latest hour (hover to see other rain measurements)
** Current wind speed in m/s (hover to see current wind gust speed)